Weather History for KSGJ - October, 2011

Change the Weather History Date:

Thursday, October 27, 2011

  Actual Average Record
Temperature  
Mean Temperature 71 °F -  
Max Temperature 80 °F 75 °F 89 °F (1985)
Min Temperature 62 °F 60 °F 46 °F (1980)
Cooling Degree Days 6    
Growing Degree Days 21 (Base 50)    
Moisture  
Dew Point 65 °F    
Average Humidity 81    
Maximum Humidity 93    
Minimum Humidity 64    
Precipitation  
Precipitation 0.00 in - - ()
Sea Level Pressure  
Sea Level Pressure 29.95 in    
Wind  
Wind Speed 2 mph (SE)    
Max Wind Speed 10 mph    
Max Gust Speed -    
Visibility 10 miles    
Events      
Averages and records for this station are not official NWS values.
T = Trace of Precipitation, MM = Missing Value Source: NWS Daily Summary

Daily Weather History Graph

Daily Weather History Graph

Search for Another Location

Airport or City:

Trip Planner

Search our weather history database for the weather conditions in past years. The results will help you decide how hot, cold, wet, or windy it might be!

Date:

Astronomy

Oct. 27, 2011 Rise Set
Actual Time 7:35 AM EDT 6:42 PM EDT
Civil Twilight 7:10 AM EDT 7:07 PM EDT
Nautical Twilight 6:42 AM EDT 7:35 PM EDT
Astronomical Twilight 6:14 AM EDT 8:03 PM EDT
Moon 8:28 AM EDT (10/27) 7:20 PM EDT (10/27)
Length of Visible Light 11h 56m
Length of Day
11h 07m
New Moon, 1% of the Moon is Illuminated
Oct 27
New Moon
Nov 2
First Quarter
Nov 10
Full
Nov 18
Last Quarter
Nov 25
New

Hourly Weather History & Observations

Time (EDT) Temp. Heat Index Dew Point Humidity Pressure Visibility Wind Dir Wind Speed Gust Speed Precip Events Conditions
12:58 AM 64.0 °F - 61.0 °F 90% 30.01 in 10.0 mi Calm Calm - N/A   Mostly Cloudy
1:58 AM 64.9 °F - 63.0 °F 93% 30.00 in 10.0 mi Calm Calm - N/A   Overcast
2:58 AM 63.0 °F - 61.0 °F 93% 29.98 in 10.0 mi Calm Calm - N/A   Clear
3:58 AM 63.0 °F - 60.1 °F 90% 29.97 in 10.0 mi Calm Calm - N/A   Clear
4:58 AM 63.0 °F - 61.0 °F 93% 29.97 in 10.0 mi Calm Calm - N/A   Mostly Cloudy
5:58 AM 63.0 °F - 61.0 °F 93% 29.97 in 10.0 mi Calm Calm - N/A   Mostly Cloudy
6:58 AM 62.1 °F - 60.1 °F 93% 29.98 in 10.0 mi Calm Calm - N/A   Partly Cloudy
7:58 AM 63.0 °F - 60.1 °F 90% 29.98 in 10.0 mi Calm Calm - N/A   Clear
8:58 AM 68.0 °F - 64.0 °F 87% 29.99 in 10.0 mi Calm Calm - N/A   Clear
9:58 AM 73.0 °F - 64.9 °F 76% 29.99 in 10.0 mi Calm Calm - N/A   Overcast
10:58 AM 77.0 °F - 64.9 °F 66% 29.98 in 10.0 mi North - - N/A   Partly Cloudy
11:58 AM 77.0 °F - 66.0 °F 69% 29.97 in 10.0 mi East 3.5 mph - N/A   Mostly Cloudy
12:58 PM 77.0 °F - 66.9 °F 71% 29.94 in 10.0 mi East 9.2 mph - N/A   Scattered Clouds
1:58 PM 78.1 °F - 66.9 °F 68% 29.92 in 10.0 mi East 8.1 mph - N/A   Scattered Clouds
2:58 PM 80.1 °F 82.3 °F 66.9 °F 64% 29.89 in 10.0 mi East 8.1 mph - N/A   Clear
3:58 PM 79.0 °F - 66.9 °F 66% 29.89 in 10.0 mi ESE 8.1 mph - N/A   Partly Cloudy
4:58 PM 77.0 °F - 66.9 °F 71% 29.88 in 10.0 mi SE 10.4 mph - N/A   Scattered Clouds
5:58 PM 77.0 °F - 66.9 °F 71% 29.89 in 10.0 mi SE 9.2 mph - N/A   Mostly Cloudy
6:58 PM 73.9 °F - 68.0 °F 82% 29.91 in 10.0 mi SSE 6.9 mph - N/A   Mostly Cloudy
7:58 PM 73.0 °F - 66.9 °F 81% 29.92 in 10.0 mi Calm Calm - N/A   Mostly Cloudy
8:58 PM 71.1 °F - 66.9 °F 87% 29.94 in 10.0 mi Calm Calm - N/A   Mostly Cloudy
10:58 PM 70.0 °F - 66.9 °F 90% 29.96 in 10.0 mi SSW 4.6 mph - N/A   Partly Cloudy
11:58 PM 70.0 °F - 66.9 °F 90% 29.95 in 10.0 mi South 3.5 mph - N/A   Mostly Cloudy